User: anonymous   Login
Location: Bergen
(60.3910°N, 5.3250°E)
Time: 13:54:56
(UTC+02:00)
Language:

Cosmos 1943 - Orbit

View from above orbital plane
View from above orbital plane
View from above satellite
View from above satellite

Ground track
Ground track

The orbit data is extracted from the following two-line orbital elements,

1 19119U 88039A   16152.23818547 -.00000261  00000-0 -11000-3 0  9998
2 19119  71.0017 183.8596 0013903 277.0082 150.3829 14.15063537448066
Epoch (UTC): 31 May 2016 05:42:59
Eccentricity: 0.0013903
inclination: 71.0017°
perigee height: 832 km
apogee height: 852 km
right ascension of ascending node: 183.8596°
argument of perigee: 277.0082°
revolutions per day: 14.15063537
mean anomaly at epoch: 150.3829°
orbit number at epoch: 44806

The dashed part of the orbit path shows where the satellite is in the earth's shadow,  

DLR